Weather in Mitinka

Russia / Kaluga Oblast     55°01′43″N   36°35′42″E
temp.,
°C
wind,
m/s
gust,
m/s
humid.,
%
clouds,
%
prec.,
mm/h
press.,
hPa
HPBL,
m
14 june, mon
mon1400:00+14sse2295100 0.0 100922
03:00+14se129561 0.0 101013
06:00+16sse129217 0.0 101276
09:00+21ssw126952 0.0 1013601
12:00+24wsw22577 0.3 10141328
15:00+25wsw22515 0.3 10141638
18:00+25wnw226015 0.1 10141035
21:00+18nnw118880 0.6 101411
15 june, tue
tue1500:00+16nw11925 0.0 101511
03:00+15sw019275 0.0 101411
06:00+17w00915 0.0 101439
09:00+22w22705 0.0 1014470
12:00+25w225923 1.1 10121203
15:00+26wnw33545 1.4 10111382
18:00+25wnw22624 0.0 1010682
21:00+19nnw228694 2.1 101014
16 june, wed
wed1600:00+16nw2295100 2.1 101030
03:00+15nnw23965 2.1 101058
06:00+15nnw389531 0.0 1011236
09:00+20nnw46655 0.0 1012624
12:00+23nnw565343 0.0 10131624
15:00+23nnw565415 0.1 10141616
18:00+21nnw47550 0.0 10151070
21:00+15n38740 0.0 1018161
17 june, thu
thu1700:00+12nne22805 0.0 102030
03:00+11nne22860 0.0 102234
06:00+13nne27760 0.0 1023217
09:00+19ne35480 0.0 1024758
12:00+22nne34390 0.0 10251610
15:00+24nne34370 0.0 10241921
18:00+22ne34500 0.0 1025970
21:00+16ne22730 0.0 102613
18 june, fri
fri1800:00+13ese11855 0.0 102710
03:00+12ese11875 0.0 102710
06:00+15ene11790 0.0 102859
09:00+21e12560 0.0 1028573
12:00+24ese23432 0.0 10271608
15:00+25se23410 0.0 10271750
18:00+23sse23565 0.0 1027729
21:00+17s22850 0.0 102723